| time (UTC) | temp C | wind direction | speed KPH | gust KPH | rain 1hr cm | rain 24hr cm | rain mn cm | humidity % | barometer mb |
| 20260505140516 | 2 | 312 | 6.4 | 12.9 | 0.03 | 0.56 | 0.23 | 94 | 1016.1 |
| 20260505125004 | 3 | 330 | 12.9 | 22.5 | 0.08 | 0.51 | 0.18 | 93 | 1015.2 |
| 20260505124514 | 3 | 321 | 11.3 | 24.1 | 0.08 | 0.51 | 0.18 | 93 | 1015.0 |
| 20260505124003 | 3 | 331 | 11.3 | 22.5 | 0.10 | 0.51 | 0.18 | 93 | 1014.9 |
| 20260505123514 | 3 | 348 | 14.5 | 25.7 | 0.15 | 0.51 | 0.18 | 93 | 1014.8 |
| 20260505123004 | 3 | 357 | 16.1 | 27.4 | 0.18 | 0.51 | 0.18 | 93 | 1014.5 |
| 20260505122515 | 3 | 353 | 16.1 | 25.7 | 0.18 | 0.51 | 0.18 | 93 | 1014.3 |
| 20260505122004 | 3 | 330 | 16.1 | 27.4 | 0.18 | 0.51 | 0.18 | 93 | 1014.5 |
| 20260505121503 | 3 | 316 | 14.5 | 27.4 | 0.15 | 0.48 | 0.15 | 93 | 1014.6 |
| 20260505121015 | 3 | 319 | 14.5 | 27.4 | 0.15 | 0.48 | 0.15 | 93 | 1014.6 |
| 20260505120515 | 3 | 313 | 16.1 | 29.0 | 0.15 | 0.48 | 0.15 | 93 | 1014.5 |
| 20260505120004 | 3 | 320 | 16.1 | 25.7 | 0.13 | 0.46 | 0.13 | 93 | 1014.4 |
| 20260505115514 | 3 | 318 | 16.1 | 27.4 | 0.13 | 0.46 | 0.13 | 93 | 1014.4 |
| 20260505115004 | 3 | 329 | 14.5 | 22.5 | 0.10 | 0.43 | 0.10 | 93 | 1014.4 |
| 20260505114514 | 3 | 315 | 14.5 | 20.9 | 0.10 | 0.43 | 0.10 | 93 | 1014.4 |
| 20260505114003 | 3 | 327 | 16.1 | 25.7 | 0.08 | 0.41 | 0.08 | 93 | 1014.4 |
| 20260505113514 | 4 | 330 | 14.5 | 25.7 | 0.03 | 0.36 | 0.03 | 92 | 1014.3 |
| 20260505113004 | 4 | 334 | 14.5 | 25.7 | 0.00 | 0.33 | 0.00 | 92 | 1014.3 |
| 20260505112515 | 5 | 330 | 17.7 | 29.0 | 0.00 | 0.33 | 0.00 | 92 | 1014.3 |
| 20260505112003 | 5 | 311 | 16.1 | 32.2 | 0.00 | 0.33 | 0.00 | 93 | 1014.2 |
| 20260505111515 | 5 | 317 | 11.3 | 22.5 | 0.00 | 0.33 | 0.00 | 93 | 1014.2 |
| 20260505111003 | 5 | 321 | 11.3 | 24.1 | 0.00 | 0.33 | 0.00 | 93 | 1014.1 |
| 20260505110515 | 5 | 309 | 14.5 | 24.1 | 0.00 | 0.33 | 0.00 | 93 | 1014.0 |
| 20260505102004 | 6 | 336 | 19.3 | 29.0 | 0.00 | 0.33 | 0.00 | 92 | 1013.3 |
| 20260505101515 | 6 | 347 | 20.9 | 32.2 | 0.00 | 0.33 | 0.00 | 92 | 1012.9 |
| 20260505101004 | 6 | 343 | 14.5 | 27.4 | 0.00 | 0.33 | 0.00 | 92 | 1012.8 |
| 20260505100515 | 6 | 359 | 22.5 | 32.2 | 0.00 | 0.33 | 0.00 | 92 | 1012.5 |
| 20260505100015 | 6 | 350 | 14.5 | 25.7 | 0.00 | 0.33 | 0.00 | 92 | 1012.9 |
| 20260505095504 | 6 | 350 | 16.1 | 29.0 | 0.00 | 0.33 | 0.00 | 92 | 1012.9 |
| 20260505095015 | 7 | 350 | 16.1 | 29.0 | 0.00 | 0.33 | 0.00 | 91 | 1012.9 |
| 20260505094515 | 7 | 341 | 16.1 | 29.0 | 0.00 | 0.33 | 0.00 | 92 | 1012.9 |
| 20260505094003 | 8 | 352 | 12.9 | 25.7 | 0.00 | 0.33 | 0.00 | 93 | 1012.7 |
| 20260505093515 | 8 | 356 | 8.0 | 16.1 | 0.00 | 0.33 | 0.00 | 93 | 1012.7 |
| 20260505093004 | 8 | 356 | 8.0 | 16.1 | 0.00 | 0.33 | 0.00 | 93 | 1012.7 |
| 20260505092515 | 8 | 1 | 9.7 | 14.5 | 0.00 | 0.33 | 0.00 | 92 | 1012.8 |
| 20260505092004 | 8 | 357 | 6.4 | 16.1 | 0.00 | 0.33 | 0.00 | 92 | 1012.8 |
| 20260505091515 | 8 | 354 | 8.0 | 14.5 | 0.00 | 0.33 | 0.00 | 92 | 1012.8 |
| 20260505091004 | 8 | 1 | 8.0 | 14.5 | 0.00 | 0.33 | 0.00 | 92 | 1012.7 |
| 20260505090514 | 8 | 344 | 4.8 | 14.5 | 0.00 | 0.33 | 0.00 | 92 | 1012.7 |
| 20260505090004 | 8 | 340 | 4.8 | 9.7 | 0.00 | 0.33 | 0.00 | 92 | 1012.7 |
| 20260505085515 | 8 | 343 | 6.4 | 12.9 | 0.00 | 0.33 | 0.00 | 92 | 1012.6 |
| 20260505085004 | 8 | 350 | 1.6 | 4.8 | 0.00 | 0.33 | 0.00 | 92 | 1012.7 |
| 20260505084515 | 8 | 137 | 1.6 | 3.2 | 0.00 | 0.33 | 0.00 | 92 | 1012.7 |
| 20260505084003 | 8 | 137 | 0.0 | 0.0 | 0.00 | 0.33 | 0.00 | 92 | 1012.7 |
| 20260505083515 | 8 | 137 | 0.0 | 0.0 | 0.00 | 0.33 | 0.00 | 92 | 1012.7 |
| 20260505083004 | 8 | 137 | 0.0 | 0.0 | 0.00 | 0.33 | 0.00 | 92 | 1012.6 |
| 20260505082514 | 8 | 137 | 0.0 | 1.6 | 0.00 | 0.33 | 0.00 | 92 | 1012.6 |
| 20260505082004 | 8 | 137 | 0.0 | 1.6 | 0.00 | 0.33 | 0.00 | 92 | 1012.7 |
| 20260505081515 | 8 | 137 | 0.0 | 0.0 | 0.00 | 0.33 | 0.00 | 92 | 1012.8 |
| 20260505081003 | 8 | 137 | 3.2 | 4.8 | 0.00 | 0.33 | 0.00 | 92 | 1012.9 |
| 20260505080515 | 8 | 137 | 1.6 | 4.8 | 0.00 | 0.33 | 0.00 | 92 | 1012.9 |
| 20260505080004 | 8 | 137 | 1.6 | 4.8 | 0.00 | 0.33 | 0.00 | 92 | 1012.9 |
| 20260505075514 | 8 | 137 | 4.8 | 8.0 | 0.00 | 0.33 | 0.00 | 92 | 1012.9 |
| 20260505075004 | 8 | 137 | 3.2 | 4.8 | 0.00 | 0.33 | 0.00 | 92 | 1012.9 |
| 20260505074515 | 8 | 137 | 1.6 | 4.8 | 0.00 | 0.33 | 0.00 | 92 | 1013.0 |
| 20260505074003 | 8 | 125 | 3.2 | 8.0 | 0.00 | 0.33 | 0.00 | 92 | 1013.1 |
| 20260505073515 | 8 | 105 | 3.2 | 4.8 | 0.00 | 0.33 | 0.00 | 92 | 1013.1 |
| 20260505073004 | 8 | 115 | 3.2 | 4.8 | 0.00 | 0.33 | 0.00 | 92 | 1013.3 |
| 20260505072504 | 8 | 109 | 4.8 | 9.7 | 0.00 | 0.33 | 0.00 | 92 | 1013.3 |
| 20260505072015 | 8 | 114 | 4.8 | 9.7 | 0.00 | 0.33 | 0.00 | 92 | 1013.3 |
| 20260505071504 | 8 | 111 | 4.8 | 8.0 | 0.00 | 0.33 | 0.00 | 92 | 1013.3 |
| 20260505071003 | 8 | 139 | 4.8 | 8.0 | 0.00 | 0.33 | 0.00 | 92 | 1013.4 |
| 20260505070515 | 8 | 139 | 4.8 | 4.8 | 0.00 | 0.33 | 0.00 | 91 | 1013.4 |
| 20260505070004 | 8 | 139 | 3.2 | 4.8 | 0.00 | 0.33 | 0.00 | 91 | 1013.5 |
| 20260505065503 | 8 | 99 | 3.2 | 9.7 | 0.00 | 0.33 | 0.00 | 91 | 1013.5 |
| 20260505065004 | 8 | 99 | 6.4 | 9.7 | 0.00 | 0.33 | 0.00 | 91 | 1013.5 |
| 20260505064504 | 8 | 117 | 3.2 | 4.8 | 0.03 | 0.33 | 0.00 | 91 | 1013.6 |
| 20260505064003 | 8 | 104 | 4.8 | 11.3 | 0.03 | 0.33 | 0.00 | 91 | 1013.5 |
| 20260505063515 | 8 | 105 | 6.4 | 12.9 | 0.03 | 0.33 | 0.00 | 91 | 1013.6 |
| 20260505063004 | 8 | 100 | 1.6 | 4.8 | 0.03 | 0.33 | 0.00 | 91 | 1013.6 |
| 20260505062504 | 8 | 100 | 3.2 | 11.3 | 0.03 | 0.33 | 0.00 | 91 | 1013.6 |
| 20260505062015 | 8 | 110 | 4.8 | 11.3 | 0.03 | 0.33 | 0.00 | 91 | 1013.5 |
| 20260505061503 | 8 | 106 | 8.0 | 11.3 | 0.03 | 0.33 | 0.00 | 90 | 1013.6 |
| 20260505061015 | 8 | 107 | 6.4 | 9.7 | 0.03 | 0.33 | 0.00 | 90 | 1013.6 |
| 20260505060503 | 8 | 99 | 4.8 | 4.8 | 0.03 | 0.33 | 0.00 | 90 | 1013.7 |
| 20260505060015 | 8 | 302 | 3.2 | 4.8 | 0.03 | 0.33 | 0.00 | 90 | 1013.7 |
| 20260505055504 | 8 | 302 | 0.0 | 3.2 | 0.03 | 0.33 | 0.33 | 90 | 1013.8 |
| 20260505055014 | 8 | 302 | 1.6 | 3.2 | 0.03 | 0.33 | 0.33 | 90 | 1013.8 |
| 20260505054504 | 8 | 302 | 0.0 | 3.2 | 0.03 | 0.30 | 0.30 | 90 | 1013.8 |
| 20260505054015 | 8 | 302 | 0.0 | 0.0 | 0.03 | 0.30 | 0.30 | 89 | 1013.8 |
| 20260505053503 | 8 | 302 | 0.0 | 1.6 | 0.03 | 0.30 | 0.30 | 89 | 1013.6 |
| 20260505053015 | 8 | 302 | 0.0 | 0.0 | 0.05 | 0.30 | 0.30 | 89 | 1013.7 |
| 20260505052503 | 9 | 302 | 0.0 | 0.0 | 0.05 | 0.30 | 0.30 | 89 | 1013.8 |
| 20260505052015 | 9 | 302 | 0.0 | 0.0 | 0.05 | 0.30 | 0.30 | 89 | 1013.8 |
| 20260505051504 | 9 | 302 | 0.0 | 0.0 | 0.05 | 0.30 | 0.30 | 89 | 1013.8 |
| 20260505051003 | 9 | 302 | 0.0 | 0.0 | 0.05 | 0.30 | 0.30 | 88 | 1013.9 |
| 20260505050515 | 9 | 302 | 0.0 | 0.0 | 0.08 | 0.30 | 0.30 | 88 | 1014.0 |
| 20260505041504 | 9 | 327 | 8.0 | 14.5 | 0.25 | 0.25 | 0.25 | 85 | 1014.2 |
| 20260505041015 | 9 | 343 | 6.4 | 16.1 | 0.25 | 0.25 | 0.25 | 84 | 1014.2 |
| 20260505040515 | 9 | 334 | 8.0 | 19.3 | 0.23 | 0.23 | 0.23 | 83 | 1014.3 |
| 20260505040004 | 9 | 316 | 6.4 | 12.9 | 0.23 | 0.23 | 0.23 | 83 | 1014.1 |
| 20260505035515 | 10 | 326 | 4.8 | 9.7 | 0.20 | 0.20 | 0.20 | 82 | 1014.1 |
| 20260505035015 | 10 | 347 | 4.8 | 9.7 | 0.20 | 0.20 | 0.20 | 80 | 1014.0 |
| 20260505034503 | 10 | 351 | 4.8 | 14.5 | 0.15 | 0.15 | 0.15 | 79 | 1014.1 |
| 20260505034004 | 10 | 335 | 4.8 | 12.9 | 0.15 | 0.15 | 0.15 | 78 | 1014.0 |
| 20260505033515 | 10 | 250 | 11.3 | 19.3 | 0.10 | 0.10 | 0.10 | 76 | 1014.0 |
| 20260505033004 | 11 | 259 | 9.7 | 16.1 | 0.10 | 0.10 | 0.10 | 74 | 1013.9 |
| 20260505032515 | 11 | 271 | 8.0 | 19.3 | 0.08 | 0.08 | 0.08 | 71 | 1013.9 |
| 20260505032003 | 11 | 277 | 8.0 | 12.9 | 0.05 | 0.05 | 0.05 | 69 | 1013.9 |
| 20260505031515 | 11 | 258 | 9.7 | 19.3 | 0.00 | 0.00 | 0.00 | 67 | 1013.8 |
| 20260505031004 | 12 | 235 | 16.1 | 20.9 | 0.00 | 0.00 | 0.00 | 65 | 1013.6 |
| 20260505030515 | 12 | 239 | 19.3 | 22.5 | 0.00 | 0.00 | 0.00 | 64 | 1013.4 |
| 20260505030004 | 12 | 232 | 9.7 | 19.3 | 0.00 | 0.00 | 0.00 | 65 | 1013.2 |
| 20260505025514 | 12 | 218 | 4.8 | 8.0 | 0.00 | 0.00 | 0.00 | 65 | 1013.0 |
| 20260505025004 | 12 | 240 | 3.2 | 4.8 | 0.00 | 0.00 | 0.00 | 65 | 1013.0 |
| 20260505024515 | 12 | 240 | 1.6 | 4.8 | 0.00 | 0.00 | 0.00 | 65 | 1013.0 |
| 20260505024003 | 12 | 291 | 1.6 | 4.8 | 0.00 | 0.00 | 0.00 | 65 | 1012.8 |
| 20260505023515 | 12 | 291 | 0.0 | 3.2 | 0.00 | 0.00 | 0.00 | 64 | 1012.8 |
| 20260505023004 | 12 | 291 | 0.0 | 3.2 | 0.00 | 0.00 | 0.00 | 64 | 1012.7 |
| 20260505022515 | 12 | 291 | 1.6 | 3.2 | 0.00 | 0.00 | 0.00 | 64 | 1012.7 |
| 20260505022004 | 12 | 291 | 1.6 | 4.8 | 0.00 | 0.00 | 0.00 | 64 | 1012.6 |
| 20260505021515 | 12 | 298 | 1.6 | 4.8 | 0.00 | 0.00 | 0.00 | 63 | 1012.7 |
| 20260505021003 | 12 | 11 | 0.0 | 0.0 | 0.00 | 0.00 | 0.00 | 63 | 1012.5 |
| 20260505020504 | 12 | 11 | 0.0 | 0.0 | 0.00 | 0.00 | 0.00 | 63 | 1012.6 |
| 20260505020015 | 12 | 11 | 0.0 | 0.0 | 0.00 | 0.00 | 0.00 | 63 | 1012.6 |
| 20260505015503 | 12 | 11 | 0.0 | 1.6 | 0.00 | 0.00 | 0.00 | 63 | 1012.6 |
| 20260505015015 | 12 | 11 | 0.0 | 3.2 | 0.00 | 0.00 | 0.00 | 63 | 1012.5 |
| 20260505014504 | 12 | 11 | 1.6 | 4.8 | 0.00 | 0.00 | 0.00 | 63 | 1012.6 |
| 20260505014015 | 12 | 11 | 1.6 | 4.8 | 0.00 | 0.00 | 0.00 | 62 | 1012.2 |
| 20260505013503 | 12 | 10 | 4.8 | 8.0 | 0.00 | 0.00 | 0.00 | 62 | 1012.0 |
| 20260505013003 | 12 | 4 | 4.8 | 9.7 | 0.00 | 0.00 | 0.00 | 63 | 1012.2 |
| 20260505012504 | 13 | 339 | 3.2 | 4.8 | 0.00 | 0.00 | 0.00 | 63 | 1012.4 |
| 20260505012004 | 13 | 349 | 3.2 | 8.0 | 0.00 | 0.00 | 0.00 | 63 | 1012.4 |
| 20260505011503 | 13 | 358 | 3.2 | 8.0 | 0.00 | 0.00 | 0.00 | 64 | 1012.4 |
| 20260505011015 | 13 | 2 | 3.2 | 4.8 | 0.00 | 0.00 | 0.00 | 63 | 1012.4 |
| 20260505010504 | 13 | 11 | 3.2 | 8.0 | 0.00 | 0.00 | 0.00 | 62 | 1012.2 |
| 20260505010015 | 13 | 6 | 3.2 | 11.3 | 0.00 | 0.00 | 0.00 | 62 | 1012.2 |
| 20260505005515 | 13 | 318 | 4.8 | 20.9 | 0.00 | 0.00 | 0.00 | 62 | 1012.3 |
| 20260505005004 | 13 | 314 | 9.7 | 19.3 | 0.00 | 0.00 | 0.00 | 61 | 1012.3 |
| 20260505004504 | 14 | 294 | 14.5 | 24.1 | 0.00 | 0.00 | 0.00 | 58 | 1012.4 |
| 20260505004004 | 14 | 298 | 11.3 | 20.9 | 0.00 | 0.00 | 0.00 | 56 | 1012.3 |
| 20260505003504 | 15 | 286 | 11.3 | 19.3 | 0.00 | 0.00 | 0.00 | 54 | 1012.2 |
| 20260505003015 | 15 | 295 | 11.3 | 20.9 | 0.00 | 0.00 | 0.00 | 52 | 1012.3 |
| 20260505002514 | 16 | 306 | 17.7 | 27.4 | 0.00 | 0.00 | 0.00 | 47 | 1012.2 |
| 20260505002004 | 16 | 305 | 11.3 | 24.1 | 0.00 | 0.00 | 0.00 | 43 | 1012.2 |
| 20260505001515 | 16 | 291 | 11.3 | 20.9 | 0.00 | 0.00 | 0.00 | 41 | 1012.1 |
| 20260505001004 | 16 | 303 | 11.3 | 19.3 | 0.00 | 0.00 | 0.00 | 41 | 1012.0 |
| 20260505000515 | 16 | 309 | 14.5 | 19.3 | 0.00 | 0.00 | 0.00 | 40 | 1011.8 |
| 20260505000004 | 16 | 319 | 9.7 | 19.3 | 0.00 | 0.00 | 0.00 | 39 | 1011.8 |
| 20260504235515 | 16 | 315 | 9.7 | 19.3 | 0.00 | 0.00 | 0.00 | 39 | 1011.8 |
| 20260504235003 | 16 | 327 | 11.3 | 22.5 | 0.00 | 0.00 | 0.00 | 38 | 1011.7 |
| 20260504234515 | 16 | 312 | 11.3 | 22.5 | 0.00 | 0.00 | 0.00 | 38 | 1011.6 |
| 20260504234004 | 17 | 345 | 17.7 | 27.4 | 0.00 | 0.00 | 0.00 | 36 | 1011.5 |
| 20260504233503 | 17 | 346 | 16.1 | 27.4 | 0.00 | 0.00 | 0.00 | 36 | 1011.3 |
| 20260504233004 | 17 | 345 | 12.9 | 25.7 | 0.00 | 0.00 | 0.00 | 35 | 1011.1 |
| 20260504232515 | 17 | 0 | 17.7 | 32.2 | 0.00 | 0.00 | 0.00 | 35 | 1010.9 |
| 20260504232004 | 17 | 5 | 12.9 | 25.7 | 0.00 | 0.00 | 0.00 | 34 | 1010.7 |
| 20260504231515 | 17 | 355 | 12.9 | 25.7 | 0.00 | 0.00 | 0.00 | 34 | 1010.9 |
| 20260504231004 | 17 | 347 | 12.9 | 32.2 | 0.00 | 0.00 | 0.00 | 34 | 1010.7 |
| 20260504230515 | 17 | 335 | 9.7 | 19.3 | 0.00 | 0.00 | 0.00 | 33 | 1010.7 |
| 20260504230004 | 17 | 333 | 14.5 | 27.4 | 0.00 | 0.00 | 0.00 | 33 | 1010.5 |
| 20260504225503 | 17 | 348 | 19.3 | 27.4 | 0.00 | 0.00 | 0.00 | 32 | 1010.5 |
| 20260504225015 | 18 | 344 | 19.3 | 29.0 | 0.00 | 0.00 | 0.00 | 31 | 1010.4 |
| 20260504224503 | 18 | 353 | 19.3 | 27.4 | 0.00 | 0.00 | 0.00 | 31 | 1010.4 |
| 20260504224015 | 18 | 353 | 20.9 | 32.2 | 0.00 | 0.00 | 0.00 | 31 | 1010.5 |
| 20260504223515 | 18 | 0 | 22.5 | 37.0 | 0.00 | 0.00 | 0.00 | 30 | 1010.4 |
| 20260504223003 | 19 | 355 | 22.5 | 35.4 | 0.00 | 0.00 | 0.00 | 29 | 1010.3 |
| 20260504222515 | 20 | 1 | 22.5 | 32.2 | 0.00 | 0.00 | 0.00 | 27 | 1010.3 |
| 20260504222003 | 21 | 6 | 22.5 | 37.0 | 0.00 | 0.00 | 0.00 | 24 | 1010.2 |
| 20260504221515 | 22 | 35 | 8.0 | 19.3 | 0.00 | 0.00 | 0.00 | 21 | 1010.0 |
| 20260504221015 | 22 | 10 | 14.5 | 24.1 | 0.00 | 0.00 | 0.00 | 21 | 1010.0 |
| 20260504220503 | 22 | 28 | 8.0 | 14.5 | 0.00 | 0.00 | 0.00 | 21 | 1010.0 |
| 20260504220015 | 22 | 51 | 3.2 | 19.3 | 0.00 | 0.00 | 0.00 | 22 | 1010.0 |
| 20260504215504 | 22 | 11 | 9.7 | 16.1 | 0.00 | 0.00 | 0.00 | 22 | 1010.0 |
| 20260504215014 | 22 | 349 | 9.7 | 14.5 | 0.00 | 0.00 | 0.00 | 22 | 1010.1 |
| 20260504214504 | 22 | 357 | 9.7 | 20.9 | 0.00 | 0.00 | 0.00 | 22 | 1010.1 |
| 20260504214015 | 22 | 339 | 6.4 | 16.1 | 0.00 | 0.00 | 0.00 | 22 | 1010.1 |
| 20260504213503 | 22 | 29 | 9.7 | 19.3 | 0.00 | 0.00 | 0.00 | 22 | 1010.1 |
| 20260504213015 | 22 | 343 | 6.4 | 14.5 | 0.00 | 0.00 | 0.00 | 23 | 1010.2 |
| 20260504212503 | 22 | 324 | 9.7 | 19.3 | 0.00 | 0.00 | 0.00 | 23 | 1010.2 |
| 20260504212014 | 22 | 300 | 9.7 | 20.9 | 0.00 | 0.00 | 0.00 | 23 | 1010.3 |
| 20260504211504 | 22 | 330 | 8.0 | 19.3 | 0.00 | 0.00 | 0.00 | 23 | 1010.3 |
| 20260504211015 | 22 | 335 | 12.9 | 24.1 | 0.00 | 0.00 | 0.00 | 23 | 1010.3 |
| 20260504210504 | 22 | 345 | 16.1 | 32.2 | 0.00 | 0.00 | 0.00 | 23 | 1010.3 |
| 20260504210004 | 22 | 296 | 14.5 | 22.5 | 0.00 | 0.00 | 0.00 | 25 | 1010.4 |
| 20260504205514 | 21 | 307 | 9.7 | 19.3 | 0.00 | 0.00 | 0.00 | 23 | 1010.5 |
| 20260504205004 | 21 | 346 | 9.7 | 20.9 | 0.00 | 0.00 | 0.00 | 24 | 1010.5 |
| 20260504204515 | 21 | 357 | 14.5 | 24.1 | 0.00 | 0.00 | 0.00 | 25 | 1010.6 |
| 20260504204003 | 20 | 339 | 9.7 | 24.1 | 0.00 | 0.00 | 0.00 | 25 | 1010.7 |
| 20260504203515 | 20 | 9 | 11.3 | 24.1 | 0.00 | 0.00 | 0.00 | 25 | 1010.8 |
| 20260504203003 | 21 | 319 | 16.1 | 32.2 | 0.00 | 0.00 | 0.00 | 25 | 1010.8 |
| 20260504202515 | 21 | 328 | 17.7 | 25.7 | 0.00 | 0.00 | 0.00 | 24 | 1010.8 |
| 20260504202004 | 21 | 339 | 12.9 | 20.9 | 0.00 | 0.00 | 0.00 | 23 | 1010.8 |
| 20260504201515 | 21 | 326 | 16.1 | 25.7 | 0.00 | 0.00 | 0.00 | 23 | 1010.7 |
| 20260504201004 | 22 | 347 | 17.7 | 32.2 | 0.00 | 0.00 | 0.00 | 22 | 1010.7 |
| 20260504200504 | 23 | 339 | 16.1 | 29.0 | 0.00 | 0.00 | 0.00 | 21 | 1010.7 |
| 20260504200004 | 23 | 326 | 19.3 | 27.4 | 0.00 | 0.00 | 0.00 | 21 | 1010.8 |
| 20260504195515 | 24 | 335 | 16.1 | 25.7 | 0.00 | 0.00 | 0.00 | 20 | 1010.7 |
| 20260504195004 | 24 | 289 | 8.0 | 19.3 | 0.00 | 0.00 | 0.00 | 20 | 1010.8 |
| 20260504194515 | 23 | 322 | 8.0 | 14.5 | 0.00 | 0.00 | 0.00 | 21 | 1010.9 |
| 20260504194004 | 23 | 311 | 12.9 | 22.5 | 0.00 | 0.00 | 0.00 | 21 | 1010.9 |
| 20260504193515 | 23 | 307 | 12.9 | 24.1 | 0.00 | 0.00 | 0.00 | 22 | 1010.8 |
| 20260504193004 | 23 | 330 | 12.9 | 20.9 | 0.00 | 0.00 | 0.00 | 22 | 1010.9 |
| 20260504192515 | 23 | 304 | 14.5 | 22.5 | 0.00 | 0.00 | 0.00 | 22 | 1010.9 |
| 20260504192004 | 23 | 303 | 16.1 | 24.1 | 0.00 | 0.00 | 0.00 | 23 | 1010.9 |
| 20260504191515 | 22 | 313 | 17.7 | 27.4 | 0.00 | 0.00 | 0.00 | 24 | 1010.9 |
| 20260504191003 | 22 | 316 | 16.1 | 35.4 | 0.00 | 0.00 | 0.00 | 24 | 1010.9 |
| 20260504190504 | 22 | 317 | 14.5 | 32.2 | 0.00 | 0.00 | 0.00 | 23 | 1010.9 |
| 20260504190004 | 22 | 327 | 19.3 | 32.2 | 0.00 | 0.00 | 0.00 | 23 | 1011.0 |
| 20260504185515 | 23 | 338 | 20.9 | 32.2 | 0.00 | 0.00 | 0.00 | 22 | 1011.0 |
| 20260504185004 | 23 | 306 | 20.9 | 33.8 | 0.00 | 0.00 | 0.00 | 23 | 1010.9 |
| 20260504184504 | 22 | 302 | 25.7 | 40.2 | 0.00 | 0.00 | 0.00 | 24 | 1010.8 |
| 20260504184004 | 21 | 340 | 14.5 | 22.5 | 0.00 | 0.00 | 0.00 | 22 | 1011.0 |
| 20260504183515 | 21 | 318 | 16.1 | 29.0 | 0.00 | 0.00 | 0.00 | 22 | 1011.0 |
| 20260504183015 | 21 | 339 | 16.1 | 25.7 | 0.00 | 0.00 | 0.00 | 23 | 1010.9 |
| 20260504182504 | 21 | 355 | 19.3 | 32.2 | 0.00 | 0.00 | 0.00 | 23 | 1010.8 |
| 20260504182004 | 20 | 348 | 16.1 | 27.4 | 0.00 | 0.00 | 0.00 | 24 | 1010.8 |
| 20260504181515 | 20 | 350 | 11.3 | 24.1 | 0.00 | 0.00 | 0.00 | 26 | 1010.8 |
| 20260504181015 | 19 | 358 | 11.3 | 25.7 | 0.00 | 0.00 | 0.00 | 26 | 1010.7 |
| 20260504180504 | 20 | 336 | 14.5 | 29.0 | 0.00 | 0.00 | 0.00 | 30 | 1010.7 |
| 20260504180014 | 20 | 313 | 17.7 | 32.2 | 0.00 | 0.00 | 0.00 | 26 | 1010.8 |
| 20260504175504 | 20 | 2 | 6.4 | 19.3 | 0.00 | 0.00 | 0.00 | 21 | 1010.7 |
| 20260504175015 | 20 | 138 | 12.9 | 40.2 | 0.00 | 0.00 | 0.00 | 21 | 1010.8 |
| 20260504174504 | 21 | 100 | 4.8 | 12.9 | 0.00 | 0.00 | 0.00 | 18 | 1010.8 |
| 20260504174015 | 22 | 84 | 3.2 | 4.8 | 0.00 | 0.00 | 0.00 | 18 | 1010.8 |
| 20260504173515 | 22 | 102 | 8.0 | 11.3 | 0.00 | 0.00 | 0.00 | 18 | 1010.8 |
| 20260504173004 | 22 | 105 | 3.2 | 4.8 | 0.00 | 0.00 | 0.00 | 19 | 1010.9 |
| 20260504172515 | 22 | 106 | 3.2 | 14.5 | 0.00 | 0.00 | 0.00 | 19 | 1011.0 |
| 20260504172004 | 22 | 123 | 4.8 | 14.5 | 0.00 | 0.00 | 0.00 | 19 | 1011.1 |
| 20260504171515 | 23 | 195 | 8.0 | 20.9 | 0.00 | 0.00 | 0.00 | 17 | 1011.3 |
| 20260504171004 | 23 | 290 | 12.9 | 19.3 | 0.00 | 0.00 | 0.00 | 17 | 1011.2 |
| 20260504170515 | 24 | 280 | 16.1 | 22.5 | 0.00 | 0.00 | 0.00 | 17 | 1011.2 |
| 20260504151015 | 17 | 216 | 14.5 | 25.7 | 0.00 | 0.00 | 0.00 | 27 | 1012.4 |
| 20260504150504 | 16 | 223 | 12.9 | 19.3 | 0.00 | 0.00 | 0.00 | 27 | 1012.4 |